Date String (YYYY-MM-DD hh:mm:ss) UTC,Instrument flags,Ambient pressure (hPa),Sample flow (lpm),Bypass flow (lpm),Sample temperature (°C),Ambient temperature (°C),ASC tube jacket temperature (°C),LED temperature (°C),Box temperature (°C),Sample RH (%),Span deviation,Mass concentration (μg/m³),Mass concentration (μg/m³),Mass concentration (μg/m³)
DateTimeUTC,F1_M11,P_M11,Q1_M11,Q2_M11,T1_M11,T2_M11,T3_M11,T4_M11,T5_M11,U1_M11,ZSPAN_M11,X0_M11,X2_M11,X1_M11
2022-07-15 08:00:00,,0830.5,4.99,0.00,29.6,27.9,00.0,38.4,31.5,25.3,0000.0,0007.38,0003.61,0003.21
2022-07-15 08:01:00,,0830.6,5.01,0.00,29.6,28.1,00.0,38.4,31.5,25.3,0000.0,0007.72,0003.72,0003.27
2022-07-15 08:02:00,,0830.5,4.99,0.00,29.7,28.2,00.0,38.4,31.5,25.3,0000.0,0008.39,0003.83,0003.33
2022-07-15 08:03:00,,0830.6,5.00,0.00,29.7,28.3,00.0,38.4,31.5,25.3,0000.0,0008.69,0003.92,0003.37
2022-07-15 08:04:00,,0830.6,5.02,0.00,29.7,28.4,00.0,38.4,31.6,25.3,0000.0,0009.04,0004.00,0003.39
2022-07-15 08:05:00,,0830.6,5.00,0.00,29.7,28.5,00.0,38.5,31.6,25.3,0000.0,0009.30,0004.09,0003.42
2022-07-15 08:06:00,,0830.6,4.99,0.00,29.8,28.6,00.0,38.5,31.7,25.5,0000.0,0009.49,0004.16,0003.44
2022-07-15 08:07:00,,0830.6,5.00,0.00,29.8,28.7,00.0,38.5,31.7,25.6,0000.0,0009.69,0004.21,0003.47
2022-07-15 08:08:00,,0830.6,5.01,0.00,29.8,28.7,00.0,38.5,31.8,26.0,0000.0,0009.85,0004.25,0003.50
2022-07-15 08:09:00,,0830.6,5.00,0.00,29.8,28.1,00.0,38.4,31.7,25.8,0000.0,0009.34,0004.26,0003.53
2022-07-15 08:10:00,,0830.6,5.00,0.00,29.8,27.6,00.0,38.4,31.6,26.0,0000.0,0009.19,0004.31,0003.55
2022-07-15 08:11:00,,0830.6,5.00,0.00,29.7,27.6,00.0,38.4,31.5,26.3,0000.0,0009.41,0004.35,0003.58
2022-07-15 08:12:00,,0830.6,5.01,0.00,29.7,27.7,00.0,38.4,31.4,26.5,0000.0,0009.56,0004.38,0003.63
2022-07-15 08:13:00,,0830.6,5.00,0.00,29.6,27.8,00.0,38.4,31.4,26.8,0000.0,0009.13,0004.41,0003.67
2022-07-15 08:14:00,,0830.6,4.99,0.00,29.6,27.9,00.0,38.4,31.4,26.8,0000.0,0009.04,0004.41,0003.70
2022-07-15 08:15:00,,0830.7,5.01,0.00,29.6,28.0,00.0,38.4,31.5,26.9,0000.0,0008.92,0004.43,0003.72
2022-07-15 08:16:00,,0830.7,5.00,0.00,29.7,28.2,00.0,38.4,31.5,26.9,0000.0,0008.85,0004.44,0003.74
2022-07-15 08:17:00,,0830.8,5.01,0.00,29.7,28.3,00.0,38.4,31.6,27.3,0000.0,0009.19,0004.45,0003.78
2022-07-15 08:18:00,,0830.8,4.99,0.00,29.7,28.4,00.0,38.4,31.6,27.8,0000.0,0009.26,0004.49,0003.82
2022-07-15 08:19:00,,0830.7,5.00,0.00,29.7,28.5,00.0,38.4,31.6,28.3,0000.0,0009.75,0004.53,0003.86
2022-07-15 08:20:00,,0830.8,5.00,0.00,29.7,28.6,00.0,38.5,31.7,28.4,0000.0,0009.96,0004.56,0003.90
2022-07-15 08:21:00,,0830.8,5.00,0.00,29.8,28.7,00.0,38.5,31.7,28.6,0000.0,0011.25,0004.59,0003.94
2022-07-15 08:22:00,,0830.9,4.99,0.00,29.8,28.7,00.0,38.5,31.8,27.9,0000.0,0011.15,0004.61,0003.96
2022-07-15 08:23:00,,0830.9,5.00,0.00,29.8,28.8,00.0,38.5,31.7,27.8,0000.0,0010.98,0004.65,0003.97
2022-07-15 08:24:00,,0830.9,5.00,0.00,29.8,28.4,00.0,38.5,31.7,27.6,0000.0,0011.13,0004.68,0003.98
2022-07-15 08:25:00,,0831.0,5.00,0.00,29.8,27.4,00.0,38.4,31.6,28.0,0000.0,0011.22,0004.70,0003.98
2022-07-15 08:26:00,,0831.1,4.99,0.00,29.7,26.9,00.0,38.4,31.4,27.8,0000.0,0011.10,0004.68,0003.99
2022-07-15 08:27:00,,0831.0,5.00,0.00,29.6,26.9,00.0,38.4,31.3,27.8,0000.0,0011.13,0004.68,0003.98
2022-07-15 08:28:00,,0831.0,5.00,0.00,29.5,27.0,00.0,38.3,31.3,27.8,0000.0,0011.40,0004.69,0003.97
2022-07-15 08:29:00,,0831.1,5.01,0.00,29.5,27.2,00.0,38.3,31.2,28.4,0000.0,0011.45,0004.67,0003.94
2022-07-15 08:30:00,,0831.2,5.00,0.00,29.5,27.3,00.0,38.3,31.2,28.6,0000.0,0011.12,0004.67,0003.92
2022-07-15 08:31:00,,0831.2,5.01,0.00,29.5,27.5,00.0,38.3,31.3,28.7,0000.0,0011.00,0004.66,0003.90
2022-07-15 08:32:00,,0831.2,4.99,0.00,29.5,27.7,00.0,38.3,31.3,28.9,0000.0,0009.75,0004.64,0003.88
2022-07-15 08:33:00,,0831.2,5.01,0.00,29.5,27.9,00.0,38.3,31.4,29.1,0000.0,0009.72,0004.65,0003.87
2022-07-15 08:34:00,,0831.2,4.99,0.00,29.5,28.0,00.0,38.3,31.4,29.4,0000.0,0011.78,0004.67,0003.87
2022-07-15 08:35:00,,0831.2,5.01,0.00,29.5,28.1,00.0,38.3,31.4,29.3,0000.0,0012.32,0004.63,0003.87
2022-07-15 08:36:00,,0831.1,4.99,0.00,29.5,28.2,00.0,38.3,31.4,30.0,0000.0,0012.27,0004.62,0003.88
2022-07-15 08:37:00,,0831.1,5.00,0.00,29.6,28.3,00.0,38.3,31.5,30.5,0000.0,0012.42,0004.66,0003.91
2022-07-15 08:38:00,,0831.1,4.99,0.00,29.6,28.4,00.0,38.3,31.5,30.2,0000.0,0012.97,0004.66,0003.93
2022-07-15 08:39:00,,0831.1,5.01,0.00,29.6,28.5,00.0,38.3,31.6,29.9,0000.0,0012.59,0004.62,0003.94
2022-07-15 08:40:00,,0831.1,5.00,0.00,29.6,28.6,00.0,38.3,31.6,29.7,0000.0,0012.51,0004.63,0003.96
2022-07-15 08:41:00,,0831.1,5.00,0.00,29.7,28.6,00.0,38.4,31.7,30.1,0000.0,0013.00,0004.71,0003.97
2022-07-15 08:42:00,,0831.1,5.00,0.00,29.7,28.7,00.0,38.4,31.7,30.1,0000.0,0013.05,0004.76,0003.98
2022-07-15 08:43:00,,0831.1,5.00,0.00,29.7,28.8,00.0,38.4,31.7,30.3,0000.0,0012.93,0004.76,0003.99
2022-07-15 08:44:00,,0831.2,5.00,0.00,29.8,28.8,00.0,38.4,31.8,30.4,0000.0,0012.98,0004.73,0003.98
2022-07-15 08:45:00,,0831.2,5.00,0.00,29.8,28.9,00.0,38.5,31.8,30.3,0000.0,0011.82,0004.70,0003.98
2022-07-15 08:46:00,,0831.2,5.00,0.00,29.8,28.9,00.0,38.5,31.8,30.4,0000.0,0010.68,0004.70,0003.98
2022-07-15 08:47:00,,0831.2,5.00,0.00,29.9,29.0,00.0,38.5,31.8,30.5,0000.0,0010.73,0004.67,0003.97
2022-07-15 08:48:00,,0831.2,4.99,0.00,29.9,28.6,00.0,38.5,31.8,30.6,0000.0,0010.66,0004.64,0003.94
2022-07-15 08:49:00,,0831.2,5.01,0.00,29.9,27.9,00.0,38.5,31.7,30.7,0000.0,0010.59,0004.65,0003.93
2022-07-15 08:50:00,,0831.2,5.00,0.00,29.8,27.6,00.0,38.4,31.6,30.8,0000.0,0010.71,0004.69,0003.93
2022-07-15 08:51:00,,0831.2,4.99,0.00,29.7,27.6,00.0,38.5,31.5,31.0,0000.0,0010.70,0004.70,0003.92
2022-07-15 08:52:00,,0831.2,4.99,0.00,29.7,27.7,00.0,38.4,31.5,31.2,0000.0,0010.61,0004.63,0003.92
2022-07-15 08:53:00,,0831.2,5.01,0.00,29.7,27.8,00.0,38.4,31.5,31.3,0000.0,0010.45,0004.58,0003.92
2022-07-15 08:54:00,,0831.2,4.99,0.00,29.7,28.0,00.0,38.4,31.5,31.2,0000.0,0010.62,0004.56,0003.92
2022-07-15 08:55:00,,0831.3,5.00,0.00,29.7,28.1,00.0,38.5,31.5,31.2,0000.0,0010.98,0004.60,0003.93
2022-07-15 08:56:00,,0831.4,5.00,0.00,29.7,28.2,00.0,38.5,31.6,31.4,0000.0,0011.06,0004.64,0003.94
2022-07-15 08:57:00,,0831.5,5.00,0.00,29.7,28.4,00.0,38.5,31.6,31.4,0000.0,0011.03,0004.62,0003.94
2022-07-15 08:58:00,,0831.5,4.99,0.00,29.7,28.5,00.0,38.5,31.6,31.4,0000.0,0011.53,0004.64,0003.94
2022-07-15 08:59:00,,0831.5,5.00,0.00,29.8,28.6,00.0,38.5,31.7,31.4,0000.0,0012.26,0004.66,0003.95
